Lexington Weather

Lexington, Massachusetts, USA

73°F
9/22/2021 1:52pm 
  • Lexington Conditions: Overcast
  • Temperature: 72.9°F / 22.7°CColder 2.1°F than last hour.
  • Dew Point: 68.7°FIncreased 0.3°Fsince last hour.
  • Relative Humidity: 87%Increased 7.0% since last hour.
  • Wind: Wind from NW NW 5 mph, 10-min avg: 3 mph, gust: 10 mph
  • Barometer: 30.10 in Steady
  • Visibility: 10 miles
  • Rain Today: 0.00 in
  •   

Regional Weather Roundup
for Boston / Norton, MA

        
000
ASUS41 KBOX 170404
RWRBOX

REGIONAL WEATHER ROUNDUP
NATIONAL WEATHER SERVICE BOSTON/NORTON MA
1200 AM EDT FRI SEP 17 2021

NOTE:  "FAIR" INDICATES FEW OR NO CLOUDS BELOW 12,000 FEET WITH NO 
SIGNIFICANT WEATHER AND/OR OBSTRUCTIONS TO VISIBILITY.

MAZALL-170500-
EASTERN MASSACHUSETTS
  
CITY           SKY/WX    TMP DP  RH WIND       PRES   REMARKS
BOSTON         CLOUDY    67  61  81 N6        30.33S                  
BEVERLY        CLOUDY    64  37  36 CALM      30.33S                  
LAWRENCE       CLOUDY    63  61  93 N3        30.35F                  
BEDFORD        CLOUDY    63  61  93 N5        30.32F                  
BLUE HILL      NOT AVBL                                               
NORWOOD        CLOUDY    66  62  87 VRB5      30.32S                  
MARSHFIELD     CLOUDY    66  63  88 CALM      30.31F                  
PLYMOUTH       MOCLDY    65  63  93 NE6       30.31S                  
TAUNTON        CLOUDY    65  63  93 CALM      30.31S                  
NEW BEDFORD    CLOUDY    66  63  90 NE7       30.29F                  
$$

MAZALL-170500-
CAPE COD AND THE ISLANDS
  
CITY           SKY/WX    TMP DP  RH WIND       PRES   REMARKS
FALMOUTH       CLOUDY    66  66 100 NE14      30.30S FOG              
HYANNIS        CLOUDY    67  66  97 NE6       30.28F FOG              
CHATHAM        CLOUDY    66  65  96 NE8       30.31S FOG              
PROVINCETOWN   CLEAR     64  63  96 NE9       30.32S                  
NANTUCKET      CLOUDY    68  66  93 NE12      30.28S                  
MARTHAS VNYRD  CLOUDY    68  67  96 NE8       30.29S FOG              
$$
 
MAZALL-170500-
CENTRAL AND WESTERN MASSACHUSETTS
  
CITY           SKY/WX    TMP DP  RH WIND       PRES   REMARKS
WORCESTER      CLOUDY    61  58  90 NE7       30.34S                  
FITCHBURG      MOCLDY    62  59  90 N5        30.35S                  
ORANGE         MOCLDY    63  59  87 NE3       30.34F                  
SPRINGFIELD    NOT AVBL                                               
WESTFIELD      CLOUDY    66  64  93 NE5       30.31F                  
NORTH ADAMS    CLOUDY    67  62  84 E7        30.32S                  
PITTSFIELD     CLOUDY    65  61  87 E7        30.31F                  
$$
 
RIZALL-170500-
RHODE ISLAND
  
CITY           SKY/WX    TMP DP  RH WIND       PRES   REMARKS
PROVIDENCE     CLOUDY    67  63  87 N7        30.31S                  
NEWPORT        CLOUDY    66  63  90 NE9       30.29F                  
BLOCK ISLAND   CLOUDY    66  64  93 NE10G16   30.29S                  
SMITHFIELD     CLOUDY    63  62  97 N7        30.32F                  
WESTERLY       CLOUDY    64  63  96 NE7       30.28F                  
$$
 
CTZALL-170500-
CONNECTICUT
  
CITY           SKY/WX    TMP DP  RH WIND       PRES   REMARKS
BRADLEY INTL   CLOUDY    67  63  87 E5        30.31S                  
HARTFORD       CLOUDY    68  62  81 NE5       30.30S                  
BRIDGEPORT     CLOUDY    71  67  87 NE10      30.26S                  
DANBURY        CLOUDY    71  65  81 E8        30.29S                  
GROTON         CLOUDY    67  63  87 NE10      30.27S                  
NEW HAVEN      CLOUDY    72  67  84 NE7       30.27S                  
CHESTER        CLOUDY    68  66  94 NE6       30.29S                  
MERIDEN        CLOUDY    68  64  87 NE6       30.29R                  
WILLIMANTIC    CLOUDY    65  62  90 N6        30.31S                  
OXFORD         CLOUDY    67  65  93 NE9       30.30S                  
$$

MEZ002-015-021-024-NHZ003-005-008-011-012-014-VTZ005-008-170500-
NORTHERN NEW ENGLAND
  
CITY           SKY/WX    TMP DP  RH WIND       PRES   REMARKS
PORTLAND ME    PTCLDY    58  55  90 N5        30.35F                  
BANGOR ME      CLEAR     52  52 100 CALM      30.37S                  
CONCORD NH     PTCLDY    60  56  86 CALM      30.36S                  
MANCHESTER NH  CLOUDY    64  58  80 NW3       30.34S                  
NASHUA NH      CLOUDY    62  62 100 NW5       30.35F                  
PORTSMOUTH NH  NOT AVBL                                               
JAFFREY NH     CLOUDY    61  59  93 CALM      30.36F                  
KEENE NH       CLOUDY    63  58  83 CALM      30.34F                  
BURLINGTON VT  PTCLDY    61  57  87 CALM      30.28S                  
MT. WASHINGTON MOCLDY    45  43  93 W23         N/A                   
$$

NYZ052-076-170500-
EASTERN NEW YORK
  
CITY           SKY/WX    TMP DP  RH WIND       PRES   REMARKS
ALBANY         PTCLDY    65  64  97 SE6       30.28S                  
NEW YORK CITY  CLOUDY    73  67  81 NE10      30.23S                  
$$
 
ANZALL-170500-
MARINE OBSERVATIONS
  
STATION/POSITION TIME  TEMP    WIND        PRES    VSBY  WAVE
                       AIR SEA DIR/SP/G                  HT/PER
                 (UTC) (F)     (DEG/KT/KT) (MB)    (MI)  (FT/S)
BOSTON BUOY      0340      66   30/ 10/ 10 1027.1F
BUZZARDS BAY     0300           40/ 17/ 18 1026.5R
NANTUCKET SOUND  0340   69 72   50/ 14/ 16 1025.6R
MASS BAY-STELLWA 0304   64      50/  8/ 10 1026.7R  1 7/8  2/ 4
ISLE OF SHOALS   0300   64      80/  7/  8 1026.9F
S OF BLOCK IS    0326      69                N/A           3/ 7
$$

......................KEY.........................
  SKY/WX - SKY CONDITION/PRESENT WEATHER
  TMP    - TEMPERATURE IN FAHRENHEIT
  DWPT   - DEWPOINT IN FAHRENHEIT
  RH     - RELATIVE HUMIDITY IN PERCENT
  WIND   - DIRECTION AND SPEED IN MPH
  PRES   - MEAN SEA LEVEL PRESSURE IN INCHES OF HG
  WCI    - WIND CHILL INDEX
  VSB    - VISIBILITY IN MILES
  HX     - HEAT INDEX
  TC     - TEMPERATURE IN CELSIUS
  VRB    - VARIABLE WIND DIRECTION
  N/A    - NOT AVAILABLE
  
      

Other recent Regional Weather Roundups

Wed Sep 22, 1:04pm

Wed Sep 22, 12:05pm

Wed Sep 22, 11:04am

Wed Sep 22, 10:04am

Wed Sep 22, 9:04am

Wed Sep 22, 8:04am

Wed Sep 22, 7:04am

Wed Sep 22, 6:04am

Wed Sep 22, 5:04am

Wed Sep 22, 4:04am

Wed Sep 22, 3:04am

Wed Sep 22, 2:04am

Wed Sep 22, 1:04am

Wed Sep 22, 12:04am

Tue Sep 21, 11:04pm

Tue Sep 21, 10:04pm

Tue Sep 21, 9:04pm

Tue Sep 21, 8:04pm

Tue Sep 21, 7:04pm

Tue Sep 21, 6:04pm

Tue Sep 21, 5:04pm

Tue Sep 21, 4:04pm

Tue Sep 21, 3:04pm

Tue Sep 21, 2:04pm

Tue Sep 21, 1:04pm

Tue Sep 21, 12:04pm

Tue Sep 21, 11:04am

Tue Sep 21, 10:04am

Tue Sep 21, 9:04am

Tue Sep 21, 8:04am

Tue Sep 21, 7:04am

Tue Sep 21, 6:04am

Tue Sep 21, 5:04am

Tue Sep 21, 4:04am

Tue Sep 21, 3:04am

Tue Sep 21, 2:04am

Tue Sep 21, 1:04am

Tue Sep 21, 12:04am

Mon Sep 20, 11:04pm

Mon Sep 20, 10:04pm

Mon Sep 20, 9:04pm

Mon Sep 20, 8:04pm

Mon Sep 20, 7:04pm

Mon Sep 20, 6:04pm

Mon Sep 20, 5:04pm

Mon Sep 20, 4:04pm

Mon Sep 20, 3:04pm

Mon Sep 20, 2:04pm

Mon Sep 20, 1:04pm

Mon Sep 20, 12:04pm

Mon Sep 20, 11:04am

Mon Sep 20, 10:04am

Mon Sep 20, 9:04am

Mon Sep 20, 7:04am

Mon Sep 20, 6:04am

Mon Sep 20, 5:04am

Mon Sep 20, 4:04am

Mon Sep 20, 3:04am

Mon Sep 20, 2:04am

Mon Sep 20, 1:04am

Mon Sep 20, 12:04am

Sun Sep 19, 11:04pm

Sun Sep 19, 10:04pm

Sun Sep 19, 9:04pm

Sun Sep 19, 8:04pm

Sun Sep 19, 7:04pm

Sun Sep 19, 6:04pm

Sun Sep 19, 5:04pm

Sun Sep 19, 4:04pm

Sun Sep 19, 3:04pm

Sun Sep 19, 2:05pm

Sun Sep 19, 1:04pm

Sun Sep 19, 12:04pm

Sun Sep 19, 11:04am

Sun Sep 19, 10:05am

Sun Sep 19, 9:04am

Sun Sep 19, 8:04am

Sun Sep 19, 7:04am

Sun Sep 19, 6:04am

Sun Sep 19, 5:04am

Sun Sep 19, 4:04am

Sun Sep 19, 3:04am

Sun Sep 19, 2:04am

Sun Sep 19, 1:04am

Sun Sep 19, 12:04am

Sat Sep 18, 11:05pm

Sat Sep 18, 10:04pm

Sat Sep 18, 9:04pm

Sat Sep 18, 8:04pm

Sat Sep 18, 7:04pm

Sat Sep 18, 6:04pm

Sat Sep 18, 5:04pm

Sat Sep 18, 4:04pm

Sat Sep 18, 3:04pm

Sat Sep 18, 2:04pm

Sat Sep 18, 1:04pm

Sat Sep 18, 12:04pm

Sat Sep 18, 11:04am

Sat Sep 18, 10:04am

Sat Sep 18, 9:04am

Sat Sep 18, 8:04am

Sat Sep 18, 7:04am

Sat Sep 18, 6:04am

Sat Sep 18, 5:04am

Sat Sep 18, 4:04am

Sat Sep 18, 3:04am

Sat Sep 18, 2:04am

Sat Sep 18, 1:04am

Sat Sep 18, 12:04am

Fri Sep 17, 11:04pm

Fri Sep 17, 10:04pm

Fri Sep 17, 9:04pm

Fri Sep 17, 8:04pm

Fri Sep 17, 7:04pm

Fri Sep 17, 6:04pm

Fri Sep 17, 5:04pm

Fri Sep 17, 4:04pm

Fri Sep 17, 3:04pm

Fri Sep 17, 2:04pm

Fri Sep 17, 1:04pm

Fri Sep 17, 12:05pm

Fri Sep 17, 11:04am

Fri Sep 17, 10:04am

Fri Sep 17, 9:04am

Fri Sep 17, 8:04am

Fri Sep 17, 7:04am

Fri Sep 17, 6:04am

Fri Sep 17, 5:04am

Fri Sep 17, 4:04am

Fri Sep 17, 3:04am

Fri Sep 17, 2:04am

Fri Sep 17, 1:04am

Thu Sep 16, 11:04pm

Thu Sep 16, 10:04pm

Thu Sep 16, 9:04pm

Thu Sep 16, 8:04pm

Thu Sep 16, 7:04pm

Thu Sep 16, 6:04pm

Thu Sep 16, 5:04pm

Thu Sep 16, 4:04pm

Thu Sep 16, 3:04pm

Thu Sep 16, 2:04pm

Thu Sep 16, 1:05pm

Thu Sep 16, 12:04pm

Thu Sep 16, 11:05am

Thu Sep 16, 10:05am

Thu Sep 16, 9:04am

Thu Sep 16, 8:04am

Thu Sep 16, 7:04am

Thu Sep 16, 6:04am

Thu Sep 16, 5:04am

Thu Sep 16, 4:04am

Thu Sep 16, 3:04am

Thu Sep 16, 2:04am

Thu Sep 16, 1:04am

Thu Sep 16, 12:04am

Wed Sep 15, 11:04pm

Wed Sep 15, 10:04pm

Wed Sep 15, 9:04pm

Wed Sep 15, 8:04pm

Wed Sep 15, 7:04pm

Wed Sep 15, 6:04pm

Wed Sep 15, 5:05pm

Wed Sep 15, 4:04pm

Wed Sep 15, 3:04pm

Wed Sep 15, 2:04pm

Meta data:

ID: 028ca90d-3871-4cbd-8dd0-ae1e338d5217
Link: https://api.weather.gov/products/028ca90d-3871-4cbd-8dd0-ae1e338d5217